VOYAGER:1:PRINTED,ON:,24-OCT-01:13:04:43:GROUP15
START_TIME,STOP_TIME,SECTOR,SCAN_DIR,SARRATE,SARUNC,SALRATE,SALUNC,ALARRATE,ALARUNC,SE5RATE,SE5UNC,SE4RATE,SE4UNC
1979-03-18 00:05:43.610 ,1979-03-18 00:06:07.610 ,9,0,-1.00,-1.00,-1.00,-1.00,92.8,2.54,-1.00,-1.00,-1.00,-1.00
1979-03-18 00:05:56.210 ,1979-03-18 00:06:02.150 ,7,-1,-1.00,-1.00,-1.00,-1.00,93.3,4.40,-1.00,-1.00,-1.00,-1.00
1979-03-18 00:06:02.590 ,1979-03-18 00:06:26.150 ,6,-1,-1.00,-1.00,-1.00,-1.00,97.9,2.25,-1.00,-1.00,-1.00,-1.00
1979-03-18 00:06:26.590 ,1979-03-18 00:06:50.150 ,5,-1,-1.00,-1.00,-1.00,-1.00,99.2,2.26,-1.00,-1.00,-1.00,-1.00
1979-03-18 00:06:50.590 ,1979-03-18 00:07:14.150 ,4,-1,-1.00,-1.00,-1.00,-1.00,100.,2.28,-1.00,-1.00,154.,5.05
1979-03-18 00:07:14.590 ,1979-03-18 00:07:38.150 ,3,-1,-1.00,-1.00,-1.00,-1.00,97.5,2.24,451.,8.66,342.,8.43
1979-03-18 00:07:38.590 ,1979-03-18 00:08:02.150 ,2,-1,-1.00,-1.00,1.280E+03,14.6,102.,2.29,537.,10.6,-1.00,-1.00
1979-03-18 00:08:02.210 ,1979-03-18 00:08:26.590 ,1,-1,1.200E+03,12.8,1.333E+03,33.3,106.,2.70,-1.00,-1.00,-1.00,-1.00
1979-03-18 00:08:26.590 ,1979-03-18 00:08:50.150 ,1,1,1.233E+03,16.0,-1.00,-1.00,109.,2.37,-1.00,-1.00,-1.00,-1.00
1979-03-18 00:08:50.590 ,1979-03-18 00:09:14.150 ,2,1,-1.00,-1.00,-1.00,-1.00,105.,2.33,-1.00,-1.00,-1.00,-1.00
1979-03-18 00:09:14.590 ,1979-03-18 00:09:38.150 ,3,1,-1.00,-1.00,-1.00,-1.00,108.,2.36,-1.00,-1.00,-1.00,-1.00
1979-03-18 00:09:38.590 ,1979-03-18 00:10:02.150 ,4,1,-1.00,-1.00,-1.00,-1.00,122.,2.51,-1.00,-1.00,-1.00,-1.00
1979-03-18 00:10:02.590 ,1979-03-18 00:10:26.150 ,5,1,-1.00,-1.00,-1.00,-1.00,123.,2.52,-1.00,-1.00,439.,8.50
1979-03-18 00:10:26.590 ,1979-03-18 00:10:50.150 ,6,1,-1.00,-1.00,-1.00,-1.00,123.,2.52,669.,10.5,450.,9.63
1979-03-18 00:10:50.590 ,1979-03-18 00:11:14.150 ,7,1,-1.00,-1.00,1.472E+03,15.6,126.,2.56,663.,11.7,-1.00,-1.00
1979-03-18 00:11:14.590 ,1979-03-18 00:11:56.150 ,8,1,1.535E+03,11.8,1.480E+03,17.3,132.,1.98,-1.00,-1.00,-1.00,-1.00
1979-03-18 00:11:56.210 ,1979-03-18 00:12:02.150 ,8,-1,-1.00,-1.00,-1.00,-1.00,147.,5.52,-1.00,-1.00,-1.00,-1.00
1979-03-18 00:12:02.590 ,1979-03-18 00:12:26.150 ,7,-1,-1.00,-1.00,-1.00,-1.00,145.,2.74,-1.00,-1.00,-1.00,-1.00
1979-03-18 00:12:26.590 ,1979-03-18 00:12:50.150 ,6,-1,-1.00,-1.00,-1.00,-1.00,162.,2.88,-1.00,-1.00,-1.00,-1.00
1979-03-18 00:12:50.590 ,1979-03-18 00:13:14.150 ,5,-1,-1.00,-1.00,-1.00,-1.00,158.,2.85,-1.00,-1.00,-1.00,-1.00
1979-03-18 00:13:14.590 ,1979-03-18 00:13:38.150 ,4,-1,-1.00,-1.00,-1.00,-1.00,146.,2.73,-1.00,-1.00,259.,6.55
1979-03-18 00:13:38.590 ,1979-03-18 00:14:02.150 ,3,-1,-1.00,-1.00,-1.00,-1.00,146.,2.73,693.,10.7,523.,10.4
1979-03-18 00:14:02.590 ,1979-03-18 00:14:26.150 ,2,-1,-1.00,-1.00,1.675E+03,16.5,142.,2.70,813.,13.0,-1.00,-1.00
1979-03-18 00:14:26.210 ,1979-03-18 00:14:50.590 ,1,-1,1.640E+03,14.9,1.547E+03,35.8,143.,3.14,-1.00,-1.00,-1.00,-1.00
1979-03-18 00:14:50.590 ,1979-03-18 00:15:14.150 ,1,1,1.647E+03,18.3,-1.00,-1.00,148.,2.76,-1.00,-1.00,-1.00,-1.00
1979-03-18 00:15:14.590 ,1979-03-18 00:15:38.150 ,2,1,-1.00,-1.00,-1.00,-1.00,145.,2.74,-1.00,-1.00,-1.00,-1.00
1979-03-18 00:15:38.590 ,1979-03-18 00:16:02.150 ,3,1,-1.00,-1.00,-1.00,-1.00,144.,2.73,-1.00,-1.00,-1.00,-1.00
1979-03-18 00:16:02.590 ,1979-03-18 00:16:26.150 ,4,1,-1.00,-1.00,-1.00,-1.00,150.,2.79,-1.00,-1.00,-1.00,-1.00
1979-03-18 00:16:26.590 ,1979-03-18 00:16:50.150 ,5,1,-1.00,-1.00,-1.00,-1.00,156.,2.85,-1.00,-1.00,581.,9.81
1979-03-18 00:16:50.590 ,1979-03-18 00:17:14.150 ,6,1,-1.00,-1.00,-1.00,-1.00,164.,2.90,837.,11.8,603.,11.1
1979-03-18 00:17:14.590 ,1979-03-18 00:17:38.150 ,7,1,-1.00,-1.00,1.749E+03,16.9,158.,2.85,807.,12.9,-1.00,-1.00
1979-03-18 00:17:38.590 ,1979-03-18 00:18:20.150 ,8,1,1.784E+03,12.8,1.767E+03,19.0,153.,2.13,-1.00,-1.00,-1.00,-1.00
1979-03-18 00:18:20.210 ,1979-03-18 00:18:26.150 ,8,-1,-1.00,-1.00,-1.00,-1.00,153.,5.63,-1.00,-1.00,-1.00,-1.00
1979-03-18 00:18:26.590 ,1979-03-18 00:18:50.150 ,7,-1,-1.00,-1.00,-1.00,-1.00,148.,2.76,-1.00,-1.00,-1.00,-1.00
1979-03-18 00:18:50.590 ,1979-03-18 00:19:14.150 ,6,-1,-1.00,-1.00,-1.00,-1.00,169.,2.96,-1.00,-1.00,-1.00,-1.00
1979-03-18 00:19:14.590 ,1979-03-18 00:19:38.150 ,5,-1,-1.00,-1.00,-1.00,-1.00,174.,2.99,-1.00,-1.00,-1.00,-1.00
1979-03-18 00:19:38.590 ,1979-03-18 00:20:02.150 ,4,-1,-1.00,-1.00,-1.00,-1.00,163.,2.91,-1.00,-1.00,285.,6.87
1979-03-18 00:20:02.590 ,1979-03-18 00:20:26.150 ,3,-1,-1.00,-1.00,-1.00,-1.00,154.,2.82,728.,10.9,573.,10.8
1979-03-18 00:20:26.590 ,1979-03-18 00:20:50.150 ,2,-1,-1.00,-1.00,1.701E+03,16.7,148.,2.76,793.,12.8,-1.00,-1.00
1979-03-18 00:20:50.210 ,1979-03-18 00:21:14.590 ,1,-1,1.796E+03,15.7,1.920E+03,39.9,154.,3.26,-1.00,-1.00,-1.00,-1.00
1979-03-18 00:21:14.590 ,1979-03-18 00:21:38.150 ,1,1,1.680E+03,18.6,-1.00,-1.00,152.,2.80,-1.00,-1.00,-1.00,-1.00
1979-03-18 00:21:38.590 ,1979-03-18 00:22:02.150 ,2,1,-1.00,-1.00,-1.00,-1.00,148.,2.76,-1.00,-1.00,-1.00,-1.00
1979-03-18 00:22:02.590 ,1979-03-18 00:22:26.150 ,3,1,-1.00,-1.00,-1.00,-1.00,152.,2.80,-1.00,-1.00,-1.00,-1.00
1979-03-18 00:22:26.590 ,1979-03-18 00:22:50.150 ,4,1,-1.00,-1.00,-1.00,-1.00,160.,2.88,-1.00,-1.00,-1.00,-1.00
1979-03-18 00:22:50.590 ,1979-03-18 00:23:14.150 ,5,1,-1.00,-1.00,-1.00,-1.00,183.,3.08,-1.00,-1.00,643.,10.3
1979-03-18 00:23:14.590 ,1979-03-18 00:23:38.150 ,6,1,-1.00,-1.00,-1.00,-1.00,180.,3.04,869.,12.0,663.,11.7
1979-03-18 00:23:38.590 ,1979-03-18 00:24:02.150 ,7,1,-1.00,-1.00,1.696E+03,16.7,166.,2.93,870.,13.5,-1.00,-1.00
1979-03-18 00:24:02.590 ,1979-03-18 00:24:44.150 ,8,1,1.724E+03,12.4,1.647E+03,18.3,151.,2.11,-1.00,-1.00,-1.00,-1.00
1979-03-18 00:24:44.210 ,1979-03-18 00:24:50.150 ,8,-1,-1.00,-1.00,-1.00,-1.00,167.,5.89,-1.00,-1.00,-1.00,-1.00
1979-03-18 00:24:50.590 ,1979-03-18 00:25:14.150 ,7,-1,-1.00,-1.00,-1.00,-1.00,159.,2.86,-1.00,-1.00,-1.00,-1.00
1979-03-18 00:25:14.590 ,1979-03-18 00:25:38.150 ,6,-1,-1.00,-1.00,-1.00,-1.00,172.,2.98,-1.00,-1.00,-1.00,-1.00
1979-03-18 00:25:38.590 ,1979-03-18 00:26:02.150 ,5,-1,-1.00,-1.00,-1.00,-1.00,169.,2.96,-1.00,-1.00,-1.00,-1.00
1979-03-18 00:26:02.590 ,1979-03-18 00:26:26.150 ,4,-1,-1.00,-1.00,-1.00,-1.00,158.,2.85,-1.00,-1.00,280.,6.82
1979-03-18 00:26:26.590 ,1979-03-18 00:26:50.150 ,3,-1,-1.00,-1.00,-1.00,-1.00,147.,2.75,760.,11.2,593.,11.0
1979-03-18 00:26:50.590 ,1979-03-18 00:27:14.150 ,2,-1,-1.00,-1.00,1.712E+03,16.9,147.,2.75,857.,13.3,-1.00,-1.00
1979-03-18 00:27:14.210 ,1979-03-18 00:27:38.590 ,1,-1,1.618E+03,14.9,1.813E+03,38.8,142.,3.13,-1.00,-1.00,-1.00,-1.00
1979-03-18 00:27:38.590 ,1979-03-18 00:28:02.150 ,1,1,1.647E+03,18.3,-1.00,-1.00,135.,2.64,-1.00,-1.00,-1.00,-1.00
1979-03-18 00:28:02.590 ,1979-03-18 00:28:26.150 ,2,1,-1.00,-1.00,-1.00,-1.00,133.,2.63,-1.00,-1.00,-1.00,-1.00
1979-03-18 00:28:26.590 ,1979-03-18 00:28:50.150 ,3,1,-1.00,-1.00,-1.00,-1.00,139.,2.67,-1.00,-1.00,-1.00,-1.00
1979-03-18 00:28:50.590 ,1979-03-18 00:29:14.150 ,4,1,-1.00,-1.00,-1.00,-1.00,143.,2.71,-1.00,-1.00,-1.00,-1.00
1979-03-18 00:29:14.590 ,1979-03-18 00:29:38.150 ,5,1,-1.00,-1.00,-1.00,-1.00,162.,2.88,-1.00,-1.00,573.,9.76
1979-03-18 00:29:38.590 ,1979-03-18 00:30:02.150 ,6,1,-1.00,-1.00,-1.00,-1.00,155.,2.83,840.,11.8,597.,11.1
1979-03-18 00:30:02.590 ,1979-03-18 00:30:26.150 ,7,1,-1.00,-1.00,1.493E+03,15.6,146.,2.73,820.,13.1,-1.00,-1.00
1979-03-18 00:30:26.590 ,1979-03-18 00:31:08.150 ,8,1,1.553E+03,11.9,1.533E+03,17.7,137.,2.01,-1.00,-1.00,-1.00,-1.00
1979-03-18 00:31:08.210 ,1979-03-18 00:31:14.150 ,8,-1,-1.00,-1.00,-1.00,-1.00,153.,5.63,-1.00,-1.00,-1.00,-1.00
1979-03-18 00:31:14.590 ,1979-03-18 00:31:38.150 ,7,-1,-1.00,-1.00,-1.00,-1.00,140.,2.69,-1.00,-1.00,-1.00,-1.00
1979-03-18 00:31:38.590 ,1979-03-18 00:32:02.150 ,6,-1,-1.00,-1.00,-1.00,-1.00,150.,2.79,-1.00,-1.00,-1.00,-1.00
1979-03-18 00:32:02.590 ,1979-03-18 00:32:26.150 ,5,-1,-1.00,-1.00,-1.00,-1.00,144.,2.73,-1.00,-1.00,-1.00,-1.00
1979-03-18 00:32:26.590 ,1979-03-18 00:32:50.150 ,4,-1,-1.00,-1.00,-1.00,-1.00,130.,2.60,-1.00,-1.00,209.,5.89
1979-03-18 00:32:50.590 ,1979-03-18 00:33:14.150 ,3,-1,-1.00,-1.00,-1.00,-1.00,121.,2.49,515.,9.25,432.,9.44
1979-03-18 00:33:14.590 ,1979-03-18 00:33:38.150 ,2,-1,-1.00,-1.00,1.456E+03,15.5,120.,2.49,583.,10.9,-1.00,-1.00
1979-03-18 00:33:38.210 ,1979-03-18 00:34:02.590 ,1,-1,1.436E+03,13.9,1.467E+03,34.8,121.,2.90,-1.00,-1.00,-1.00,-1.00
1979-03-18 00:34:02.590 ,1979-03-18 00:34:26.150 ,1,1,1.420E+03,17.1,-1.00,-1.00,118.,2.48,-1.00,-1.00,-1.00,-1.00
1979-03-18 00:34:26.590 ,1979-03-18 00:34:50.150 ,2,1,-1.00,-1.00,-1.00,-1.00,113.,2.43,-1.00,-1.00,-1.00,-1.00
1979-03-18 00:34:50.590 ,1979-03-18 00:35:14.150 ,3,1,-1.00,-1.00,-1.00,-1.00,121.,2.49,-1.00,-1.00,-1.00,-1.00
1979-03-18 00:35:14.590 ,1979-03-18 00:35:38.150 ,4,1,-1.00,-1.00,-1.00,-1.00,119.,2.48,-1.00,-1.00,-1.00,-1.00
1979-03-18 00:35:38.590 ,1979-03-18 00:36:02.150 ,5,1,-1.00,-1.00,-1.00,-1.00,119.,2.48,-1.00,-1.00,403.,8.18
1979-03-18 00:36:02.590 ,1979-03-18 00:36:26.150 ,6,1,-1.00,-1.00,-1.00,-1.00,118.,2.48,549.,9.53,422.,9.36
1979-03-18 00:36:26.590 ,1979-03-18 00:36:50.150 ,7,1,-1.00,-1.00,1.259E+03,14.4,112.,2.41,553.,10.7,-1.00,-1.00
1979-03-18 00:36:50.590 ,1979-03-18 00:37:32.150 ,8,1,1.224E+03,10.5,1.240E+03,15.9,104.,1.76,-1.00,-1.00,-1.00,-1.00
1979-03-18 00:37:32.210 ,1979-03-18 00:37:38.150 ,8,-1,-1.00,-1.00,-1.00,-1.00,107.,4.70,-1.00,-1.00,-1.00,-1.00
1979-03-18 00:37:38.590 ,1979-03-18 00:38:02.150 ,7,-1,-1.00,-1.00,-1.00,-1.00,101.,2.29,-1.00,-1.00,-1.00,-1.00
1979-03-18 00:38:02.590 ,1979-03-18 00:38:26.150 ,6,-1,-1.00,-1.00,-1.00,-1.00,104.,2.33,-1.00,-1.00,-1.00,-1.00
1979-03-18 00:38:26.590 ,1979-03-18 00:38:50.150 ,5,-1,-1.00,-1.00,-1.00,-1.00,107.,2.35,-1.00,-1.00,-1.00,-1.00
1979-03-18 00:38:50.590 ,1979-03-18 00:39:14.150 ,4,-1,-1.00,-1.00,-1.00,-1.00,105.,2.32,-1.00,-1.00,177.,5.41
1979-03-18 00:39:14.590 ,1979-03-18 00:39:38.150 ,3,-1,-1.00,-1.00,-1.00,-1.00,97.5,2.24,445.,8.56,345.,8.46
1979-03-18 00:39:38.590 ,1979-03-18 00:40:02.150 ,2,-1,-1.00,-1.00,1.211E+03,14.2,100.,2.28,513.,10.3,-1.00,-1.00
1979-03-18 00:40:02.210 ,1979-03-18 00:40:26.590 ,1,-1,1.173E+03,12.6,1.147E+03,30.8,102.,2.65,-1.00,-1.00,-1.00,-1.00
1979-03-18 00:40:26.590 ,1979-03-18 00:40:50.150 ,1,1,1.207E+03,15.8,-1.00,-1.00,103.,2.30,-1.00,-1.00,-1.00,-1.00
1979-03-18 00:40:50.590 ,1979-03-18 00:41:14.150 ,2,1,-1.00,-1.00,-1.00,-1.00,96.2,2.23,-1.00,-1.00,-1.00,-1.00
1979-03-18 00:41:14.590 ,1979-03-18 00:41:38.150 ,3,1,-1.00,-1.00,-1.00,-1.00,102.,2.29,-1.00,-1.00,-1.00,-1.00
1979-03-18 00:41:38.590 ,1979-03-18 00:42:02.150 ,4,1,-1.00,-1.00,-1.00,-1.00,101.,2.29,-1.00,-1.00,-1.00,-1.00
1979-03-18 00:42:02.590 ,1979-03-18 00:42:26.150 ,5,1,-1.00,-1.00,-1.00,-1.00,107.,2.36,-1.00,-1.00,343.,7.55
1979-03-18 00:42:26.590 ,1979-03-18 00:42:50.150 ,6,1,-1.00,-1.00,-1.00,-1.00,106.,2.34,485.,8.95,365.,8.67
1979-03-18 00:42:50.590 ,1979-03-18 00:43:14.150 ,7,1,-1.00,-1.00,1.216E+03,14.1,107.,2.36,503.,10.2,-1.00,-1.00
1979-03-18 00:43:14.590 ,1979-03-18 00:43:56.150 ,8,1,1.351E+03,11.0,1.200E+03,15.8,106.,1.78,-1.00,-1.00,-1.00,-1.00
1979-03-18 00:44:44.210 ,1979-03-18 00:45:08.210 ,9,0,-1.00,-1.00,-1.00,-1.00,94.7,1.98,-1.00,-1.00,-1.00,-1.00
1979-03-18 00:45:08.210 ,1979-03-18 00:45:14.150 ,5,-1,-1.00,-1.00,-1.00,-1.00,95.0,4.44,-1.00,-1.00,-1.00,-1.00
1979-03-18 00:45:14.590 ,1979-03-18 00:45:38.150 ,4,-1,-1.00,-1.00,-1.00,-1.00,95.0,2.21,-1.00,-1.00,147.,4.93
1979-03-18 00:45:38.590 ,1979-03-18 00:46:02.150 ,3,-1,-1.00,-1.00,-1.00,-1.00,92.5,2.18,401.,8.15,310.,7.99
1979-03-18 00:46:02.590 ,1979-03-18 00:46:26.150 ,2,-1,-1.00,-1.00,1.077E+03,13.3,95.0,2.21,477.,9.91,-1.00,-1.00
1979-03-18 00:46:26.210 ,1979-03-18 00:46:50.590 ,1,-1,1.027E+03,11.9,1.093E+03,30.1,91.1,2.51,-1.00,-1.00,-1.00,-1.00
1979-03-18 00:46:50.590 ,1979-03-18 00:47:14.150 ,1,1,1.047E+03,14.7,-1.00,-1.00,95.4,2.22,-1.00,-1.00,-1.00,-1.00
1979-03-18 00:47:14.590 ,1979-03-18 00:47:38.150 ,2,1,-1.00,-1.00,-1.00,-1.00,92.9,2.19,-1.00,-1.00,-1.00,-1.00
1979-03-18 00:47:38.590 ,1979-03-18 00:48:02.150 ,3,1,-1.00,-1.00,-1.00,-1.00,90.0,2.15,-1.00,-1.00,-1.00,-1.00
1979-03-18 00:48:02.590 ,1979-03-18 00:48:26.150 ,4,1,-1.00,-1.00,-1.00,-1.00,90.8,2.17,-1.00,-1.00,-1.00,-1.00
1979-03-18 00:48:26.590 ,1979-03-18 00:48:50.150 ,5,1,-1.00,-1.00,-1.00,-1.00,96.7,2.24,-1.00,-1.00,333.,7.45
1979-03-18 00:48:50.590 ,1979-03-18 00:49:14.150 ,6,1,-1.00,-1.00,-1.00,-1.00,97.5,2.24,459.,8.67,353.,8.56
1979-03-18 00:49:14.590 ,1979-03-18 00:49:38.150 ,7,1,-1.00,-1.00,1.008E+03,12.9,91.3,2.17,467.,9.84,-1.00,-1.00
1979-03-18 00:49:38.590 ,1979-03-18 00:50:20.150 ,8,1,1.007E+03,9.60,1.013E+03,14.4,90.2,1.64,-1.00,-1.00,-1.00,-1.00
1979-03-18 00:50:20.210 ,1979-03-18 00:50:26.150 ,8,-1,-1.00,-1.00,-1.00,-1.00,88.3,4.28,-1.00,-1.00,-1.00,-1.00
1979-03-18 00:50:26.590 ,1979-03-18 00:50:50.150 ,7,-1,-1.00,-1.00,-1.00,-1.00,93.8,2.20,-1.00,-1.00,-1.00,-1.00
1979-03-18 00:50:50.590 ,1979-03-18 00:51:14.150 ,6,-1,-1.00,-1.00,-1.00,-1.00,92.9,2.19,-1.00,-1.00,-1.00,-1.00
1979-03-18 00:51:14.590 ,1979-03-18 00:51:38.150 ,5,-1,-1.00,-1.00,-1.00,-1.00,96.3,2.23,-1.00,-1.00,-1.00,-1.00
1979-03-18 00:51:38.590 ,1979-03-18 00:52:02.150 ,4,-1,-1.00,-1.00,-1.00,-1.00,88.8,2.15,-1.00,-1.00,135.,4.73
1979-03-18 00:52:02.590 ,1979-03-18 00:52:26.150 ,3,-1,-1.00,-1.00,-1.00,-1.00,86.3,2.12,383.,7.95,300.,7.88
1979-03-18 00:52:26.590 ,1979-03-18 00:52:50.150 ,2,-1,-1.00,-1.00,1.371E+03,15.0,90.8,2.17,462.,9.74,-1.00,-1.00
1979-03-18 00:52:50.210 ,1979-03-18 00:53:14.590 ,1,-1,1.142E+03,12.5,1.387E+03,33.8,98.9,2.61,-1.00,-1.00,-1.00,-1.00
1979-03-18 00:53:14.590 ,1979-03-18 00:53:38.150 ,1,1,1.133E+03,15.2,-1.00,-1.00,98.3,2.26,-1.00,-1.00,-1.00,-1.00
1979-03-18 00:53:38.590 ,1979-03-18 00:54:02.150 ,2,1,-1.00,-1.00,-1.00,-1.00,95.8,2.23,-1.00,-1.00,-1.00,-1.00
1979-03-18 00:54:02.590 ,1979-03-18 00:54:26.150 ,3,1,-1.00,-1.00,-1.00,-1.00,96.7,2.24,-1.00,-1.00,-1.00,-1.00
1979-03-18 00:54:26.590 ,1979-03-18 00:54:50.150 ,4,1,-1.00,-1.00,-1.00,-1.00,100.,2.28,-1.00,-1.00,-1.00,-1.00
1979-03-18 00:54:50.590 ,1979-03-18 00:55:14.150 ,5,1,-1.00,-1.00,-1.00,-1.00,109.,2.38,-1.00,-1.00,364.,7.74
1979-03-18 00:55:14.590 ,1979-03-18 00:55:38.150 ,6,1,-1.00,-1.00,-1.00,-1.00,111.,2.39,471.,8.82,367.,8.71
1979-03-18 00:55:38.590 ,1979-03-18 00:56:02.150 ,7,1,-1.00,-1.00,1.285E+03,14.5,111.,2.39,477.,9.91,-1.00,-1.00
1979-03-18 00:56:02.590 ,1979-03-18 00:56:44.150 ,8,1,1.206E+03,10.6,1.273E+03,16.1,111.,1.80,-1.00,-1.00,-1.00,-1.00
1979-03-18 00:56:44.210 ,1979-03-18 00:56:50.150 ,8,-1,-1.00,-1.00,-1.00,-1.00,110.,4.78,-1.00,-1.00,-1.00,-1.00
1979-03-18 00:56:50.590 ,1979-03-18 00:57:14.150 ,7,-1,-1.00,-1.00,-1.00,-1.00,116.,2.44,-1.00,-1.00,-1.00,-1.00
1979-03-18 00:57:14.590 ,1979-03-18 00:57:38.150 ,6,-1,-1.00,-1.00,-1.00,-1.00,117.,2.46,-1.00,-1.00,-1.00,-1.00
1979-03-18 00:57:38.590 ,1979-03-18 00:58:02.150 ,5,-1,-1.00,-1.00,-1.00,-1.00,116.,2.44,-1.00,-1.00,-1.00,-1.00
1979-03-18 00:58:02.590 ,1979-03-18 00:58:26.150 ,4,-1,-1.00,-1.00,-1.00,-1.00,113.,2.42,-1.00,-1.00,182.,5.49
1979-03-18 00:58:26.590 ,1979-03-18 00:58:50.150 ,3,-1,-1.00,-1.00,-1.00,-1.00,113.,2.43,416.,8.32,395.,9.01
1979-03-18 00:58:50.590 ,1979-03-18 00:59:14.150 ,2,-1,-1.00,-1.00,1.195E+03,14.0,105.,2.32,497.,10.2,-1.00,-1.00
1979-03-18 00:59:14.210 ,1979-03-18 00:59:38.590 ,1,-1,1.258E+03,13.2,1.253E+03,32.3,117.,2.84,-1.00,-1.00,-1.00,-1.00
1979-03-18 00:59:38.590 ,1979-03-18 00:00:02.150 ,1,1,1.187E+03,15.6,-1.00,-1.00,109.,2.37,-1.00,-1.00,-1.00,-1.00
1979-03-18 01:00:02.590 ,1979-03-18 01:00:26.150 ,2,1,-1.00,-1.00,-1.00,-1.00,112.,2.41,-1.00,-1.00,-1.00,-1.00
1979-03-18 01:00:26.590 ,1979-03-18 01:00:50.150 ,3,1,-1.00,-1.00,-1.00,-1.00,109.,2.37,-1.00,-1.00,-1.00,-1.00
1979-03-18 01:00:50.590 ,1979-03-18 01:01:14.150 ,4,1,-1.00,-1.00,-1.00,-1.00,112.,2.41,-1.00,-1.00,-1.00,-1.00
1979-03-18 01:01:14.590 ,1979-03-18 01:01:38.150 ,5,1,-1.00,-1.00,-1.00,-1.00,121.,2.49,-1.00,-1.00,399.,8.10
1979-03-18 01:01:38.590 ,1979-03-18 01:02:02.150 ,6,1,-1.00,-1.00,-1.00,-1.00,117.,2.46,509.,9.15,423.,9.33
1979-03-18 01:02:02.590 ,1979-03-18 01:02:26.150 ,7,1,-1.00,-1.00,1.349E+03,15.0,118.,2.48,517.,10.3,-1.00,-1.00
1979-03-18 01:02:26.590 ,1979-03-18 01:03:08.150 ,8,1,1.390E+03,11.3,1.273E+03,16.1,119.,1.88,-1.00,-1.00,-1.00,-1.00
1979-03-18 01:03:08.210 ,1979-03-18 01:03:14.150 ,8,-1,-1.00,-1.00,-1.00,-1.00,123.,5.07,-1.00,-1.00,-1.00,-1.00
1979-03-18 01:03:14.590 ,1979-03-18 01:03:38.150 ,7,-1,-1.00,-1.00,-1.00,-1.00,111.,2.39,-1.00,-1.00,-1.00,-1.00
1979-03-18 01:03:38.590 ,1979-03-18 01:04:02.150 ,6,-1,-1.00,-1.00,-1.00,-1.00,117.,2.46,-1.00,-1.00,-1.00,-1.00
1979-03-18 01:04:02.590 ,1979-03-18 01:04:26.150 ,5,-1,-1.00,-1.00,-1.00,-1.00,116.,2.44,-1.00,-1.00,-1.00,-1.00
1979-03-18 01:04:26.590 ,1979-03-18 01:04:50.150 ,4,-1,-1.00,-1.00,-1.00,-1.00,104.,2.33,-1.00,-1.00,199.,5.74
1979-03-18 01:04:50.590 ,1979-03-18 01:05:14.150 ,3,-1,-1.00,-1.00,-1.00,-1.00,107.,2.35,459.,8.67,382.,8.89
1979-03-18 01:05:14.590 ,1979-03-18 01:05:38.150 ,2,-1,-1.00,-1.00,917.,12.3,108.,2.36,523.,10.4,-1.00,-1.00
1979-03-18 01:05:38.210 ,1979-03-18 01:06:02.590 ,1,-1,1.409E+03,13.9,907.,27.5,112.,2.79,-1.00,-1.00,-1.00,-1.00
1979-03-18 01:06:02.590 ,1979-03-18 01:06:26.150 ,1,1,1.380E+03,16.8,-1.00,-1.00,111.,2.39,-1.00,-1.00,-1.00,-1.00
1979-03-18 01:06:26.590 ,1979-03-18 01:06:50.150 ,2,1,-1.00,-1.00,-1.00,-1.00,104.,2.33,-1.00,-1.00,-1.00,-1.00
1979-03-18 01:06:50.590 ,1979-03-18 01:07:14.150 ,3,1,-1.00,-1.00,-1.00,-1.00,106.,2.33,-1.00,-1.00,-1.00,-1.00
1979-03-18 01:07:14.590 ,1979-03-18 01:07:38.150 ,4,1,-1.00,-1.00,-1.00,-1.00,105.,2.33,-1.00,-1.00,-1.00,-1.00
1979-03-18 01:07:38.590 ,1979-03-18 01:08:02.150 ,5,1,-1.00,-1.00,-1.00,-1.00,110.,2.38,-1.00,-1.00,401.,8.15
1979-03-18 01:08:02.590 ,1979-03-18 01:08:26.150 ,6,1,-1.00,-1.00,-1.00,-1.00,117.,2.46,520.,9.26,437.,9.48
1979-03-18 01:08:26.590 ,1979-03-18 01:08:50.150 ,7,1,-1.00,-1.00,933.,12.4,114.,2.43,527.,10.5,-1.00,-1.00
1979-03-18 01:08:50.590 ,1979-03-18 01:09:32.150 ,8,1,1.333E+03,11.0,973.,14.1,124.,1.92,-1.00,-1.00,-1.00,-1.00
1979-03-18 01:09:32.210 ,1979-03-18 01:09:38.150 ,8,-1,-1.00,-1.00,-1.00,-1.00,120.,4.99,-1.00,-1.00,-1.00,-1.00
1979-03-18 01:09:38.590 ,1979-03-18 01:10:02.150 ,7,-1,-1.00,-1.00,-1.00,-1.00,124.,2.54,-1.00,-1.00,-1.00,-1.00
1979-03-18 01:10:02.590 ,1979-03-18 01:10:26.150 ,6,-1,-1.00,-1.00,-1.00,-1.00,134.,2.64,-1.00,-1.00,-1.00,-1.00
1979-03-18 01:10:26.590 ,1979-03-18 01:10:50.150 ,5,-1,-1.00,-1.00,-1.00,-1.00,127.,2.55,-1.00,-1.00,-1.00,-1.00
1979-03-18 01:10:50.590 ,1979-03-18 01:11:14.150 ,4,-1,-1.00,-1.00,-1.00,-1.00,117.,2.46,-1.00,-1.00,223.,6.07
1979-03-18 01:11:14.590 ,1979-03-18 01:11:38.150 ,3,-1,-1.00,-1.00,-1.00,-1.00,117.,2.46,520.,9.26,507.,10.2
1979-03-18 01:11:38.590 ,1979-03-18 01:12:02.150 ,2,-1,-1.00,-1.00,992.,12.7,122.,2.51,650.,11.6,-1.00,-1.00
1979-03-18 01:12:02.210 ,1979-03-18 01:12:26.590 ,1,-1,1.742E+03,15.5,987.,28.5,128.,2.97,-1.00,-1.00,-1.00,-1.00
1979-03-18 01:12:26.590 ,1979-03-18 01:12:50.150 ,1,1,1.640E+03,18.4,-1.00,-1.00,132.,2.61,-1.00,-1.00,-1.00,-1.00
1979-03-18 01:12:50.590 ,1979-03-18 01:13:14.150 ,2,1,-1.00,-1.00,-1.00,-1.00,130.,2.60,-1.00,-1.00,-1.00,-1.00
1979-03-18 01:13:14.590 ,1979-03-18 01:13:38.150 ,3,1,-1.00,-1.00,-1.00,-1.00,133.,2.61,-1.00,-1.00,-1.00,-1.00
1979-03-18 01:13:38.590 ,1979-03-18 01:14:02.150 ,4,1,-1.00,-1.00,-1.00,-1.00,132.,2.61,-1.00,-1.00,-1.00,-1.00
1979-03-18 01:14:02.590 ,1979-03-18 01:14:26.150 ,5,1,-1.00,-1.00,-1.00,-1.00,152.,2.80,-1.00,-1.00,584.,9.85
1979-03-18 01:14:26.590 ,1979-03-18 01:14:50.150 ,6,1,-1.00,-1.00,-1.00,-1.00,153.,2.80,709.,10.9,537.,10.6
1979-03-18 01:14:50.590 ,1979-03-18 01:15:14.150 ,7,1,-1.00,-1.00,1.237E+03,14.3,149.,2.77,723.,12.2,-1.00,-1.00
1979-03-18 01:15:14.590 ,1979-03-18 01:15:56.150 ,8,1,1.760E+03,12.6,1.207E+03,15.8,149.,2.09,-1.00,-1.00,-1.00,-1.00
1979-03-18 01:15:56.210 ,1979-03-18 01:16:02.150 ,8,-1,-1.00,-1.00,-1.00,-1.00,153.,5.63,-1.00,-1.00,-1.00,-1.00
1979-03-18 01:16:02.590 ,1979-03-18 01:16:26.150 ,7,-1,-1.00,-1.00,-1.00,-1.00,144.,2.73,-1.00,-1.00,-1.00,-1.00
1979-03-18 01:16:26.590 ,1979-03-18 01:16:50.150 ,6,-1,-1.00,-1.00,-1.00,-1.00,153.,2.81,-1.00,-1.00,-1.00,-1.00
1979-03-18 01:16:50.590 ,1979-03-18 01:17:14.150 ,5,-1,-1.00,-1.00,-1.00,-1.00,139.,2.67,-1.00,-1.00,-1.00,-1.00
1979-03-18 01:17:14.590 ,1979-03-18 01:17:38.150 ,4,-1,-1.00,-1.00,-1.00,-1.00,161.,2.89,-1.00,-1.00,276.,6.77
1979-03-18 01:17:38.590 ,1979-03-18 01:18:02.150 ,3,-1,-1.00,-1.00,-1.00,-1.00,143.,2.71,757.,11.1,700.,12.0
1979-03-18 01:18:02.590 ,1979-03-18 01:18:26.150 ,2,-1,-1.00,-1.00,2.037E+03,18.1,158.,2.85,880.,13.5,-1.00,-1.00
1979-03-18 01:18:26.210 ,1979-03-18 01:18:50.590 ,1,-1,1.707E+03,15.2,2.293E+03,43.4,166.,3.39,-1.00,-1.00,-1.00,-1.00
1979-03-18 01:18:50.590 ,1979-03-18 01:19:14.150 ,1,1,1.680E+03,18.6,-1.00,-1.00,142.,2.70,-1.00,-1.00,-1.00,-1.00
1979-03-18 01:19:14.590 ,1979-03-18 01:19:38.150 ,2,1,-1.00,-1.00,-1.00,-1.00,144.,2.73,-1.00,-1.00,-1.00,-1.00
1979-03-18 01:19:38.590 ,1979-03-18 01:20:02.150 ,3,1,-1.00,-1.00,-1.00,-1.00,143.,2.72,-1.00,-1.00,-1.00,-1.00
1979-03-18 01:20:02.590 ,1979-03-18 01:20:26.150 ,4,1,-1.00,-1.00,-1.00,-1.00,145.,2.74,-1.00,-1.00,-1.00,-1.00
1979-03-18 01:20:26.590 ,1979-03-18 01:20:44.150 ,5,1,-1.00,-1.00,-1.00,-1.00,151.,3.23,-1.00,-1.00,-1.00,-1.00
1979-03-18 01:22:20.210 ,1979-03-18 01:22:44.210 ,9,0,-1.00,-1.00,-1.00,-1.00,163.,2.60,-1.00,-1.00,-1.00,-1.00
1979-03-18 01:22:44.210 ,1979-03-18 01:22:50.150 ,7,-1,-1.00,-1.00,-1.00,-1.00,157.,5.70,-1.00,-1.00,-1.00,-1.00
1979-03-18 01:22:50.590 ,1979-03-18 01:23:14.150 ,6,-1,-1.00,-1.00,-1.00,-1.00,170.,2.97,-1.00,-1.00,-1.00,-1.00
1979-03-18 01:23:14.590 ,1979-03-18 01:23:38.150 ,5,-1,-1.00,-1.00,-1.00,-1.00,169.,2.96,-1.00,-1.00,-1.00,-1.00
1979-03-18 01:23:38.590 ,1979-03-18 01:24:02.150 ,4,-1,-1.00,-1.00,-1.00,-1.00,153.,2.80,-1.00,-1.00,292.,6.93
1979-03-18 01:24:02.590 ,1979-03-18 01:24:26.150 ,3,-1,-1.00,-1.00,-1.00,-1.00,157.,2.84,800.,11.5,620.,11.3
1979-03-18 01:24:26.590 ,1979-03-18 01:24:50.150 ,2,-1,-1.00,-1.00,1.589E+03,16.1,153.,2.81,877.,13.4,-1.00,-1.00
1979-03-18 01:24:50.210 ,1979-03-18 01:25:14.590 ,1,-1,1.769E+03,15.5,1.573E+03,36.1,152.,3.23,-1.00,-1.00,-1.00,-1.00
1979-03-18 01:25:14.590 ,1979-03-18 01:25:38.150 ,1,1,1.867E+03,19.5,-1.00,-1.00,152.,2.80,-1.00,-1.00,-1.00,-1.00
1979-03-18 01:25:38.590 ,1979-03-18 01:26:02.150 ,2,1,-1.00,-1.00,-1.00,-1.00,156.,2.85,-1.00,-1.00,-1.00,-1.00
1979-03-18 01:26:02.590 ,1979-03-18 01:26:26.150 ,3,1,-1.00,-1.00,-1.00,-1.00,150.,2.79,-1.00,-1.00,-1.00,-1.00
1979-03-18 01:26:26.590 ,1979-03-18 01:26:50.150 ,4,1,-1.00,-1.00,-1.00,-1.00,156.,2.85,-1.00,-1.00,-1.00,-1.00
1979-03-18 01:26:50.590 ,1979-03-18 01:27:14.150 ,5,1,-1.00,-1.00,-1.00,-1.00,165.,2.91,-1.00,-1.00,685.,10.6
1979-03-18 01:27:14.590 ,1979-03-18 01:27:38.150 ,6,1,-1.00,-1.00,-1.00,-1.00,170.,2.97,987.,12.8,683.,11.9
1979-03-18 01:27:38.590 ,1979-03-18 01:28:02.150 ,7,1,-1.00,-1.00,1.499E+03,15.7,158.,2.85,953.,14.0,-1.00,-1.00
1979-03-18 01:28:02.590 ,1979-03-18 01:28:44.150 ,8,1,1.846E+03,13.0,1.480E+03,17.3,153.,2.13,-1.00,-1.00,-1.00,-1.00
1979-03-18 01:28:44.210 ,1979-03-18 01:28:50.150 ,8,-1,-1.00,-1.00,-1.00,-1.00,153.,5.63,-1.00,-1.00,-1.00,-1.00
1979-03-18 01:28:50.590 ,1979-03-18 01:29:14.150 ,7,-1,-1.00,-1.00,-1.00,-1.00,157.,2.84,-1.00,-1.00,-1.00,-1.00
1979-03-18 01:29:14.590 ,1979-03-18 01:29:38.150 ,6,-1,-1.00,-1.00,-1.00,-1.00,171.,2.96,-1.00,-1.00,-1.00,-1.00
1979-03-18 01:29:38.590 ,1979-03-18 01:30:02.150 ,5,-1,-1.00,-1.00,-1.00,-1.00,172.,2.98,-1.00,-1.00,-1.00,-1.00
1979-03-18 01:30:02.590 ,1979-03-18 01:30:26.150 ,4,-1,-1.00,-1.00,-1.00,-1.00,156.,2.85,-1.00,-1.00,305.,7.11
1979-03-18 01:30:26.590 ,1979-03-18 01:30:50.150 ,3,-1,-1.00,-1.00,-1.00,-1.00,153.,2.81,896.,12.2,687.,11.9